STARLINK-34771, 65078

Orbit data source: Space-Track

STARLINK-34771, 65078 is a payload satellite owned by SpaceX/Seattle (US) in LEO that was launched on Mon, 04 Aug 2025 UTC via an FALCON 9 launch vehicle from the Air Force Eastern Test Range (AFETR). Payload-class satellites include a variety of spacecraft equipped with specific instruments for various scientific and technological missions. These include communications satellites like Starlink; space stations such as the ISS; scientific satellites like the Hubble; Earth observation satellites from companies like Planet Labs, Umbra, and HawkEye 360; GPS; miniature CubeSats for education and research; and military/defense satellites.

Loading next visibility...
Identifier
65078, 2025-167A
Orbit
LEO
Country
Flag of USUS
Related business
Manufacturer
SpaceX/Seattle
Mission
Operational Commercial Communications
Bus & Motor
STARLINK V2MO, Unknown motor
Mass
575 kg wet, ~530 kg dry
Launch date (UTC)
2025-08-04 (11 months ago)
Launch vehicle
FALCON 9
Launch site
Air Force Eastern Test Range (AFETR)
Object type
Payload
Rocket body
Debris
Shape & HBR
Box + 2 Pan, 17.7 m
Radar Cross Section
36.964 m², Large (>1 m²)

Expand to show TLE details & history
Last TLE update: 2 days ago

TLE from 2 days ago
0 STARLINK-34771
1 65078U 25167A   26173.50391313  .00007458  00000-0  26365-3 0  9990
2 65078  53.1578 257.2819 0000947  73.2505 286.8600 15.30203024 49567
Epoch: 2026-06-22T12:05Z
TLE epoch observation values (Epoch: 2026-06-22T12:05:38.094Z)
Latitude
0.00001°
Longitude
165.1843°
Altitude
475.917 km
Speed
7.629 km/s
True Right ascension
17h 09m 07s
True Declination
0° 00' 00"
Sunlit
Object was in full shadow at epoch
Visualization orbit readout
Latitude
Unknown
Longitude
Unknown
Altitude
Unknown
Speed
Unknown
Apparent Right ascension
Unknown
Apparent Declination
Unknown
Sunlit
N/A
Visualization observer readout
Local Sidereal Time
13:52:24
Azimuth
Unknown
Elevation
Unknown
Doppler factor
Unknown
Orbital elements
Apogee altitude
476.112 km
Perigee altitude
474.814 km
Semi-major axis
6,853.6 km
Eccentricity
0.00009
Inclination
53.1578°
RAAN
257.2819°
Arg. of periapsis
73.2505°
True anomaly
286.84961°
Mean anomaly
286.86°
Eccentric anomaly
286.85481°
Mean motion
3.8253 °/min
Orbital period
94.11 mins
BSTAR
0.00026365
Loading maneuver chart data...
Computing Atmospheric mass density...
Loading historical data...
Loading historical data...
Loading historical data...
Loading historical data...
Loading historical data...
Loading historical data...
Loading historical data...

Documentation

Showing up to 5 results
|